Date String (YYYY-MM-DD hh:mm:ss) UTC,Instrument flags,Ambient pressure (hPa),Sample flow (lpm),Bypass flow (lpm),Sample temperature (°C),Ambient temperature (°C),ASC tube jacket temperature (°C),LED temperature (°C),Box temperature (°C),Sample RH (%),Span deviation,Mass concentration (μg/m³),Mass concentration (μg/m³),Mass concentration (μg/m³)
DateTimeUTC,F1_M11,P_M11,Q1_M11,Q2_M11,T1_M11,T2_M11,T3_M11,T4_M11,T5_M11,U1_M11,ZSPAN_M11,X0_M11,X2_M11,X1_M11
2022-10-22 05:00:00,,0815.1,5.00,0.00,30.0,28.3,00.0,38.9,31.7,06.2,0000.0,0010.39,0004.55,0004.16
2022-10-22 05:01:00,,0815.2,5.00,0.00,30.0,28.3,00.0,38.9,31.7,06.2,0000.0,0009.56,0004.53,0004.17
2022-10-22 05:02:00,,0815.3,5.00,0.00,30.0,28.3,00.0,38.9,31.7,06.1,0000.0,0009.56,0004.55,0004.18
2022-10-22 05:03:00,,0815.2,5.00,0.00,30.0,28.3,00.0,38.9,31.7,06.1,0000.0,0009.46,0004.55,0004.18
2022-10-22 05:04:00,,0815.2,5.00,0.00,30.0,28.3,00.0,38.9,31.7,06.2,0000.0,0008.83,0004.53,0004.19
2022-10-22 05:05:00,,0815.3,5.00,0.00,30.0,28.3,00.0,38.9,31.7,06.3,0000.0,0008.58,0004.54,0004.20
2022-10-22 05:06:00,,0815.3,4.99,0.00,30.0,28.3,00.0,38.9,31.8,06.3,0000.0,0008.63,0004.58,0004.22
2022-10-22 05:07:00,,0815.3,5.00,0.00,30.0,28.4,00.0,38.9,31.8,06.3,0000.0,0008.01,0004.62,0004.25
2022-10-22 05:08:00,,0815.3,5.00,0.00,30.0,28.4,00.0,38.9,31.7,06.2,0000.0,0007.81,0004.63,0004.25
2022-10-22 05:09:00,,0815.3,5.00,0.00,30.0,28.4,00.0,38.9,31.7,06.3,0000.0,0007.90,0004.65,0004.27
2022-10-22 05:10:00,,0815.2,5.01,0.00,30.0,28.4,00.0,38.9,31.7,06.4,0000.0,0008.07,0004.69,0004.29
2022-10-22 05:11:00,,0815.2,4.99,0.00,30.0,28.4,00.0,38.9,31.7,06.4,0000.0,0008.69,0004.73,0004.31
2022-10-22 05:12:00,,0815.2,5.01,0.00,30.0,28.4,00.0,38.9,31.7,06.5,0000.0,0008.69,0004.74,0004.32
2022-10-22 05:13:00,,0815.3,5.01,0.00,30.0,28.4,00.0,38.9,31.7,06.5,0000.0,0008.78,0004.79,0004.37
2022-10-22 05:14:00,,0815.1,5.00,0.00,30.0,28.4,00.0,38.9,31.7,06.5,0000.0,0008.98,0004.85,0004.41
2022-10-22 05:15:00,,0815.2,4.99,0.00,30.0,28.4,00.0,38.9,31.7,06.6,0000.0,0009.54,0004.96,0004.45
2022-10-22 05:16:00,,0815.3,4.99,0.00,30.0,28.3,00.0,38.9,31.7,06.6,0000.0,0009.95,0005.02,0004.48
2022-10-22 05:17:00,,0815.2,4.99,0.00,30.0,28.4,00.0,38.9,31.7,06.5,0000.0,0010.05,0005.04,0004.49
2022-10-22 05:18:00,,0815.2,4.99,0.00,30.0,28.4,00.0,38.9,31.8,06.5,0000.0,0010.18,0005.08,0004.52
2022-10-22 05:19:00,,0815.3,5.00,0.00,30.0,28.4,00.0,38.9,31.7,06.5,0000.0,0010.03,0005.14,0004.57
2022-10-22 05:20:00,,0815.2,5.00,0.00,30.0,28.4,00.0,38.9,31.7,06.6,0000.0,0010.26,0005.17,0004.60
2022-10-22 05:21:00,,0815.0,5.00,0.00,30.0,28.4,00.0,38.9,31.7,06.4,0000.0,0009.87,0005.18,0004.62
2022-10-22 05:22:00,,0814.9,4.99,0.00,30.0,28.3,00.0,38.9,31.7,06.4,0000.0,0009.44,0005.20,0004.64
2022-10-22 05:23:00,,0815.0,5.00,0.00,30.0,28.3,00.0,38.9,31.7,06.3,0000.0,0009.51,0005.21,0004.63
2022-10-22 05:24:00,,0815.1,5.00,0.00,30.0,28.3,00.0,38.9,31.8,06.4,0000.0,0009.71,0005.20,0004.61
2022-10-22 05:25:00,,0815.1,5.00,0.00,30.0,28.3,00.0,38.9,31.7,06.4,0000.0,0009.71,0005.18,0004.59
2022-10-22 05:26:00,,0815.1,4.99,0.00,30.0,28.3,00.0,38.9,31.7,06.4,0000.0,0009.29,0005.12,0004.58
2022-10-22 05:27:00,,0814.9,5.01,0.00,30.0,28.3,00.0,38.9,31.7,06.4,0000.0,0008.83,0005.07,0004.56
2022-10-22 05:28:00,,0814.9,5.02,0.00,29.9,28.2,00.0,38.9,31.6,06.3,0000.0,0008.76,0005.05,0004.55
2022-10-22 05:29:00,,0814.9,5.00,0.00,29.9,28.2,00.0,38.8,31.7,06.3,0000.0,0009.14,0005.06,0004.54
2022-10-22 05:30:00,,0814.9,4.99,0.00,29.9,28.2,00.0,38.8,31.7,06.3,0000.0,0009.06,0005.05,0004.52
2022-10-22 05:31:00,,0814.9,5.00,0.00,29.9,28.2,00.0,38.8,31.6,06.2,0000.0,0008.78,0005.01,0004.50
2022-10-22 05:32:00,,0814.8,5.00,0.00,29.9,28.2,00.0,38.8,31.7,06.2,0000.0,0008.79,0004.97,0004.47
2022-10-22 05:33:00,,0814.9,4.99,0.00,29.9,28.2,00.0,38.8,31.7,06.2,0000.0,0008.78,0004.92,0004.44
2022-10-22 05:34:00,,0814.8,5.00,0.00,29.9,28.2,00.0,38.8,31.7,06.2,0000.0,0008.77,0004.90,0004.43
2022-10-22 05:35:00,,0814.8,5.00,0.00,29.9,28.2,00.0,38.8,31.7,06.1,0000.0,0008.65,0004.87,0004.42
2022-10-22 05:36:00,,0814.8,5.00,0.00,29.9,28.1,00.0,38.8,31.7,06.2,0000.0,0008.72,0004.87,0004.42
2022-10-22 05:37:00,,0814.9,5.02,0.00,29.9,28.1,00.0,38.8,31.6,06.2,0000.0,0008.94,0004.84,0004.41
2022-10-22 05:38:00,,0814.9,5.00,0.00,29.9,28.1,00.0,38.8,31.6,06.2,0000.0,0008.96,0004.83,0004.39
2022-10-22 05:39:00,,0814.9,4.99,0.00,29.8,28.1,00.0,38.8,31.6,06.3,0000.0,0009.00,0004.84,0004.39
2022-10-22 05:40:00,,0814.8,4.99,0.00,29.8,28.1,00.0,38.8,31.5,06.3,0000.0,0008.76,0004.83,0004.40
2022-10-22 05:41:00,,0814.9,4.99,0.00,29.8,28.1,00.0,38.8,31.5,06.3,0000.0,0008.83,0004.83,0004.39
2022-10-22 05:42:00,,0814.8,4.99,0.00,29.8,28.1,00.0,38.8,31.5,06.2,0000.0,0008.85,0004.83,0004.38
2022-10-22 05:43:00,,0815.1,5.02,0.00,29.8,28.0,00.0,38.8,31.5,06.2,0000.0,0008.78,0004.83,0004.39
2022-10-22 05:44:00,,0814.7,5.00,0.00,29.8,28.0,00.0,38.8,31.5,06.3,0000.0,0008.61,0004.83,0004.40
2022-10-22 05:45:00,,0814.8,5.01,0.00,29.8,28.0,00.0,38.8,31.5,06.3,0000.0,0008.59,0004.82,0004.40
2022-10-22 05:46:00,,0814.8,5.00,0.00,29.7,28.0,00.0,38.8,31.4,06.3,0000.0,0008.96,0004.86,0004.40
2022-10-22 05:47:00,,0814.9,5.00,0.00,29.7,27.9,00.0,38.8,31.4,06.3,0000.0,0008.82,0004.88,0004.41
2022-10-22 05:48:00,,0814.8,5.00,0.00,29.7,27.9,00.0,38.8,31.4,06.3,0000.0,0008.66,0004.90,0004.41
2022-10-22 05:49:00,,0814.9,5.00,0.00,29.7,27.9,00.0,38.8,31.4,06.3,0000.0,0008.71,0004.91,0004.42
2022-10-22 05:50:00,,0814.8,5.01,0.00,29.7,27.9,00.0,38.7,31.4,06.3,0000.0,0008.97,0004.92,0004.42
2022-10-22 05:51:00,,0814.8,5.00,0.00,29.7,27.9,00.0,38.7,31.4,06.3,0000.0,0009.17,0004.93,0004.42
2022-10-22 05:52:00,,0814.8,4.99,0.00,29.6,27.9,00.0,38.7,31.3,06.3,0000.0,0009.67,0004.96,0004.43
2022-10-22 05:53:00,,0814.8,4.99,0.00,29.6,27.8,00.0,38.7,31.3,06.3,0000.0,0010.03,0004.99,0004.43
2022-10-22 05:54:00,,0814.8,5.00,0.00,29.6,27.9,00.0,38.7,31.3,06.4,0000.0,0010.28,0005.01,0004.44
2022-10-22 05:55:00,,0814.8,5.00,0.00,29.6,27.9,00.0,38.7,31.3,06.4,0000.0,0010.39,0005.06,0004.46
2022-10-22 05:56:00,,0815.0,5.01,0.00,29.6,27.9,00.0,38.7,31.3,06.4,0000.0,0010.38,0005.09,0004.48
2022-10-22 05:57:00,,0815.1,5.00,0.00,29.6,28.0,00.0,38.7,31.4,06.4,0000.0,0010.02,0005.05,0004.50
2022-10-22 05:58:00,,0814.8,5.00,0.00,29.6,28.0,00.0,38.6,31.4,06.4,0000.0,0009.89,0005.04,0004.51
2022-10-22 05:59:00,,0814.8,5.00,0.00,29.7,28.0,00.0,38.6,31.4,06.4,0000.0,0009.93,0005.06,0004.53
